SCP
1 1 1 1 1 0 0 0 0 0 0 0 0 0 0 0 0 0 0 0 0 0 0 0 0 0 0 0 0 0 0 0 0 0 0 0 0 0 0 0 0 0 0 0 0 0 0 0 0
1 1 1 1 1 0 0 0 0 0 0 0 0 0 0 0 0 0 0 0 0 0 0 0 0 0 0 0 0 0 0 0 0 0 0 0 0 0 0 0 0 0 0 0 0 0 0 0 0
1 1 1 1 0 0 0 0 0 0 0 0 0 0 0 0 0 0 0 0 0 0 0 0 0 0 0 0 0 0 0 0 0 0 0 0 0 0 0 0 0 0 0 0 0 0 0 0 0
1 1 1 0 0 0 0 0 0 0 0 0 0 0 0 0 0 0 0 0 0 0 0 0 0 0 0 0 0 0 0 0 0 0 0 0 0 0 0 0 0 0 0 0 0 0 0 0 0
1 1 1 0 0 0 0 0 0 0 0 0 0 0 0 0 0 0 0 0 0 0 0 0 0 0 0 0 0 0 0 0 0 0 0 0 0 0 0 0 0 0 0 0 0 0 0 0 0
1 1 0 0 0 0 0 0 0 0 0 0 0 0 0 0 0 0 0 0 0 0 0 0 0 0 0 0 0 0 0 0 0 0 0 0 0 0 0 0 0 0 0 0 0 0 0 0 0
1 0 0 0 0 0 0 0 0 0 0 0 0 0 0 0 0 0 0 0 0 0 0 0 0 0 0 0 0 0 0 0 0 0 0 0 0 0 0 0 0 0 0 0 0 0 0 0 0
0 0 0 0 0 0 0 0 0 0 0 0 0 0 0 0 0 0 0 0 0 0 0 0 0 0 0 0 0 0 0 0 0 0 0 0 0 0 0 0 0 0 0 0 0 0 0 0 0
0 0 0 0 0 0 0 0 0 0 0 0 0 0 0 0 0 0 0 0 0 0 0 0 0 0 0 0 0 0 0 0 0 0 0 0 0 0 0 0 0 0 0 0 0 0 0 0 0
0 0 0 0 0 0 0 0 0 0 0 0 0 0 0 0 0 0 0 0 0 0 0 0 0 0 0 0 0 0 0 0 0 0 0 0 0 0 0 0 0 0 0 0 0 0 0 0 0
0 0 0 0 0 0 0 0 0 0 0 0 0 0 0 0 0 0 0 0 0 0 0 0 0 0 0 0 0 0 0 0 0 0 0 0 0 0 0 0 0 0 0 0 0 0 0 0 0
0 0 0 0 0 0 0 0 0 0 0 0 0 0 0 0 0 0 0 0 0 0 0 0 0 0 0 0 0 0 0 0 0 0 0 0 0 0 0 0 0 0 0 0 0 0 0 0 0
0 0 0 0 0 0 0 0 0 0 0 0 0 0 0 0 0 0 0 0 0 0 0 0 0 0 0 0 0 0 0 0 0 0 0 0 0 0 0 0 0 0 0 0 0 0 0 0 0
0 0 0 0 0 0 0 0 0 0 0 0 0 0 0 0 0 0 0 0 0 0 0 0 0 0 0 0 0 0 0 0 0 0 0 0 0 0 0 0 0 0 0 0 0 0 0 0 0
0 0 0 0 0 0 0 0 0 0 0 0 0 0 0 0 0 0 0 0 0 0 0 0 0 0 0 0 0 0 0 0 0 0 0 0 0 0 0 0 0 0 0 0 0 0 0 0 0
0 0 0 0 0 0 0 0 0 0 0 0 0 0 0 0 0 0 0 0 0 0 0 0 0 0 0 0 0 0 0 0 0 0 0 0 0 0 0 0 0 0 0 0 0 0 0 0 0
0 0 0 0 0 0 0 0 0 0 0 0 0 0 0 0 0 0 0 0 0 1 1 0 0 0 0 0 0 0 0 0 0 0 0 0 0 0 0 0 0 0 0 0 0 0 0 0 0
0 0 0 0 0 0 0 0 0 0 0 0 0 0 0 0 0 0 0 0 1 1 1 1 1 1 1 0 0 0 0 0 0 0 0 0 0 0 0 0 0 0 0 0 0 0 0 0 0
0 0 0 0 0 0 0 0 0 0 0 0 0 0 1 0 0 0 0 1 1 1 1 1 1 1 1 0 0 0 0 0 0 0 0 0 0 0 0 0 0 0 0 0 0 0 0 0 0
0 0 0 0 0 0 0 0 0 0 0 0 0 1 1 1 1 1 1 1 1 1 1 1 1 1 1 1 0 0 0 0 0 0 0 1 0 0 0 0 0 0 0 0 0 0 0 0 0
0 0 0 0 0 0 0 0 0 0 0 0 0 0 1 1 1 1 1 1 1 1 1 1 1 1 1 1 1 0 0 0 0 0 1 1 1 0 0 0 0 0 0 0 0 0 0 0 0
0 0 0 0 0 0 0 0 0 0 0 0 0 0 1 1 1 1 1 1 1 1 1 1 1 1 1 1 1 1 1 1 1 1 1 1 1 1 0 0 0 0 0 0 0 0 0 0 0
0 0 0 0 0 0 0 0 0 0 0 0 0 0 1 1 1 1 1 1 1 1 1 1 1 1 1 1 1 1 1 1 1 1 1 1 1 1 1 1 1 1 1 0 0 0 0 0 0
0 0 0 0 0 0 0 0 0 0 0 0 0 1 1 1 1 1 1 1 1 1 1 1 2 2 1 1 1 1 1 1 1 1 1 1 1 1 1 1 1 1 1 1 1 0 0 0 0
0 0 0 0 0 0 0 0 0 0 0 0 0 1 1 1 1 1 1 1 1 1 1 2 2 2 2 1 1 1 1 1 1 1 1 1 1 1 1 1 1 1 1 1 1 1 0 0 0
0 0 0 0 0 0 0 0 0 0 0 0 1 1 1 1 1 1 1 1 2 2 2 2 2 2 2 1 1 1 1 1 1 1 1 1 1 1 1 1 1 1 1 1 1 1 1 1 1
0 0 0 0 0 0 0 0 0 0 0 0 1 1 1 1 1 1 1 2 2 2 2 3 3 3 2 2 2 1 1 1 1 1 1 1 1 1 1 1 1 1 1 1 1 1 1 1 1
0 0 0 0 0 0 0 0 0 0 1 1 1 1 1 1 1 2 2 2 2 2 2 3 3 3 2 2 2 1 1 1 1 1 1 1 1 1 1 1 1 1 1 1 1 1 1 1 1
0 0 0 0 0 0 0 0 0 1 1 1 1 1 2 2 2 2 2 2 2 2 2 2 3 3 2 2 2 2 1 1 1 1 1 1 1 1 1 1 1 1 1 1 1 1 1 1 1
0 0 0 0 0 0 0 0 0 1 1 1 1 1 2 2 2 2 3 3 2 2 2 2 2 2 2 2 2 2 2 1 1 1 1 1 1 1 1 1 1 1 1 1 1 1 1 1 1
Wind_Speed
10 11 10 7 5 3 13 13 13 13 13 13 13 13 15 14 11 10 10 12 13 12 11 12 12 12 11 11 11 12 12 12 12 12 12 12 12 12 12 12 12 12 13 13 13 13 13 13 13
10 12 9 6 0 8 13 13 13 13 11 11 14 16 17 16 14 13 11 12 13 12 11 11 12 12 12 11 11 12 12 12 11 11 12 11 11 11 11 11 11 12 12 13 13 13 13 13 13
12 15 8 3 8 11 13 11 12 12 10 11 14 15 13 12 14 12 12 13 13 13 13 13 12 12 12 11 11 11 12 12 11 11 11 11 10 10 10 10 10 11 12 12 13 13 12 12 12
8 9 6 3 14 14 13 11 11 12 11 11 13 13 14 12 13 14 14 13 14 14 14 13 12 13 12 11 11 11 11 11 11 11 10 9 9 10 10 10 10 11 11 12 12 12 12 11 11
9 6 1 10 15 14 12 12 12 12 12 14 16 16 15 14 15 15 14 13 13 14 13 13 13 13 12 11 11 11 11 11 11 10 10 9 9 9 9 10 11 11 11 11 11 11 11 10 9
7 4 4 10 14 13 12 12 12 13 14 15 17 17 14 13 12 13 13 13 13 14 14 12 13 13 12 11 11 11 11 10 10 10 9 9 9 9 9 10 11 11 11 11 11 10 10 9 8
8 2 7 11 12 12 12 12 12 12 12 13 15 16 13 12 11 12 12 13 13 14 13 11 11 11 11 11 11 10 10 10 9 9 9 9 8 9 10 10 10 11 11 10 10 9 8 8 6
5 2 7 10 11 13 13 12 12 13 12 11 11 12 13 13 12 13 12 12 11 11 11 11 11 10 9 9 10 10 10 9 9 8 9 9 8 8 10 10 10 10 10 9 9 8 7 6 5
3 3 8 9 10 11 12 13 12 12 12 11 11 16 16 15 14 13 12 11 9 9 8 9 9 9 9 9 10 9 9 8 8 7 9 8 5 6 7 10 11 10 9 9 8 7 7 6 5
2 5 9 8 9 10 11 10 11 11 12 13 16 18 16 14 13 12 12 11 10 9 8 7 8 7 7 7 7 5 5 6 5 5 6 4 3 3 7 10 11 10 9 8 8 7 7 6 4
3 7 7 8 10 10 10 9 8 11 11 13 16 17 15 14 12 11 11 11 10 9 8 8 7 5 5 5 5 3 3 3 4 5 4 3 3 4 5 4 6 6 7 5 6 6 5 5 3
2 6 7 7 8 9 9 9 9 11 12 15 16 16 15 13 11 10 10 11 10 9 8 8 7 4 4 3 3 3 3 3 3 4 5 3 2 2 3 3 3 4 3 3 3 2 3 2 2
1 3 5 7 7 8 9 9 11 13 14 16 16 15 14 13 11 10 10 10 10 9 8 8 7 5 3 2 1 3 3 3 4 4 3 3 3 2 2 2 2 2 3 3 2 2 2 1 1
1 2 4 6 7 7 8 9 9 13 14 15 14 14 14 12 12 11 10 10 10 8 8 8 7 6 4 2 1 1 2 3 3 3 4 3 3 3 3 2 1 1 2 2 2 2 2 1 1
6 4 3 4 6 6 6 7 9 12 14 14 14 12 13 13 12 11 10 10 10 8 7 7 8 7 5 4 2 2 2 3 2 3 4 3 2 3 2 2 2 2 2 2 1 2 2 2 2
9 7 5 5 5 6 6 6 13 13 13 14 14 13 12 11 12 12 12 11 10 9 8 6 7 8 6 3 2 1 1 3 3 3 3 3 3 2 2 2 2 2 2 2 2 1 2 2 1
11 8 6 6 6 5 7 8 14 15 15 13 13 13 13 12 12 12 13 12 10 9 8 6 5 7 6 5 3 2 1 2 2 3 3 3 3 2 1 1 2 1 1 1 1 2 1 2 1
8 6 5 6 6 7 7 8 13 15 15 15 14 14 14 14 13 13 12 12 11 10 9 7 6 6 6 5 3 2 2 2 2 2 3 4 3 3 2 2 2 1 1 1 1 2 1 1 1
9 9 8 6 5 7 8 9 13 13 13 14 14 14 14 14 14 14 13 13 12 10 9 8 7 6 5 4 4 3 3 2 2 3 4 4 3 3 3 2 2 1 1 1 2 1 1 1 1
11 12 10 7 7 7 7 7 11 13 13 14 15 15 16 15 15 14 13 13 13 12 10 9 7 7 6 4 3 3 3 3 3 2 4 4 4 4 4 3 2 2 2 2 2 2 2 2 2
14 13 10 7 7 9 7 7 9 11 11 13 15 15 16 16 17 16 14 13 13 13 12 10 9 8 7 6 4 3 3 2 2 3 3 4 4 4 2 3 3 2 3 3 3 3 3 2 2
14 12 9 9 9 7 6 7 8 10 10 11 13 14 15 15 16 16 15 14 14 14 13 10 9 8 7 7 6 6 5 4 4 3 3 4 4 4 3 3 3 3 2 2 4 3 3 3 3
14 12 11 10 10 10 8 8 6 8 11 11 12 13 14 15 16 16 15 14 14 14 13 11 10 8 8 7 6 5 4 3 3 3 4 3 3 4 3 3 3 3 2 3 3 2 3 3 3
13 13 12 11 9 12 12 11 8 7 10 10 11 12 13 15 16 16 15 13 12 13 12 12 11 9 8 7 7 6 5 4 3 4 4 4 3 3 4 4 3 3 3 2 2 3 3 3 3
14 12 9 10 9 11 12 12 6 7 9 11 12 12 13 14 15 15 15 15 12 12 12 12 12 10 9 8 7 6 5 4 4 4 4 3 3 3 4 4 3 3 2 3 3 3 3 3 3
15 16 12 11 10 9 9 8 5 4 6 7 10 13 14 14 14 15 14 14 12 13 12 12 12 10 9 8 6 5 5 4 4 4 4 4 3 2 3 3 3 3 3 3 3 3 3 3 4
16 15 14 13 14 11 7 5 7 4 5 6 7 11 13 13 14 14 14 13 12 11 11 12 11 10 9 9 7 6 5 4 4 4 4 2 1 2 3 3 3 3 3 3 3 2 3 3 4
17 14 10 11 10 11 9 8 7 7 7 6 6 7 8 10 11 13 13 12 11 11 9 11 12 10 9 8 7 7 6 4 3 3 3 2 2 1 2 3 3 3 3 4 3 3 3 3 3
15 15 12 9 9 10 9 7 4 4 3 4 6 6 7 9 9 10 11 10 10 10 10 9 10 10 9 8 6 6 6 5 5 3 3 2 2 2 2 2 3 3 4 4 3 4 4 4 3
15 15 14 10 9 10 10 6 2 2 3 4 5 7 6 6 7 8 10 10 8 8 8 8 8 9 9 8 7 6 5 5 5 4 3 3 2 2 2 2 2 3 4 4 4 5 4 4 4
Wind_Direction
189 208 215 234 238 81 68 72 71 66 64 59 63 70 64 58 70 90 103 101 103 108 111 108 103 99 98 98 98 98 99 98 96 97 98 97 97 99 101 104 105 107 110 110 109 110 109 110 110
214 217 223 243 205 72 72 73 74 73 75 77 71 72 72 71 85 100 105 105 108 111 112 108 109 105 103 103 104 101 101 100 99 99 100 99 99 102 103 107 108 110 111 112 112 113 112 113 114
247 244 250 236 67 72 78 79 86 89 82 82 79 68 67 84 93 105 114 117 110 106 106 111 113 109 107 106 106 105 105 103 102 102 103 102 102 103 105 110 112 113 114 115 114 113 113 114 117
243 238 238 73 72 74 81 89 95 95 88 84 85 80 77 88 101 111 118 118 113 113 111 113 115 112 110 109 111 109 107 107 106 104 104 105 105 107 109 115 118 118 116 116 115 114 113 115 118
239 257 152 75 77 81 85 91 93 90 89 87 89 93 92 95 107 116 120 119 114 112 112 117 119 115 114 113 112 113 111 109 108 107 106 105 106 107 112 116 119 120 120 119 118 118 119 120 123
258 248 84 86 83 85 90 91 92 93 96 99 103 104 102 111 115 117 116 115 114 113 113 118 123 122 120 116 113 116 116 114 115 113 110 109 108 109 112 116 120 121 122 123 122 122 124 126 130
256 340 78 88 92 86 82 86 92 95 98 104 112 110 115 120 120 117 114 110 114 116 121 126 129 126 120 118 118 120 120 119 122 122 119 118 118 116 118 119 121 123 125 126 127 128 128 132 140
293 11 70 83 93 92 89 83 82 93 91 103 114 115 126 130 129 119 113 107 108 115 123 134 137 135 135 128 126 124 126 127 129 130 131 130 129 128 128 127 126 128 130 132 135 136 140 146 160
298 41 66 80 92 100 100 100 96 99 102 94 89 112 128 134 130 125 120 116 114 112 118 127 131 142 142 136 134 138 138 140 144 145 146 150 154 144 143 130 133 135 138 143 147 152 159 167 184
49 70 83 93 100 105 105 110 120 118 111 104 104 115 129 136 137 137 133 130 128 123 121 121 125 136 141 134 136 153 151 157 169 154 159 172 153 134 130 132 141 147 151 156 167 175 180 193 194
58 84 82 90 103 111 113 115 120 121 121 122 127 132 138 143 144 141 135 134 132 131 125 121 116 120 125 125 141 141 139 154 155 146 150 151 139 139 129 144 151 159 169 171 170 188 206 201 192
73 100 114 107 108 107 105 105 94 90 112 126 133 140 144 148 146 143 136 132 132 131 129 124 118 108 103 110 123 140 144 144 134 141 155 147 145 136 132 147 158 169 168 162 166 193 202 177 161
148 117 117 117 119 114 115 109 105 105 114 124 136 144 149 150 148 142 136 135 134 136 133 123 120 113 103 96 125 134 132 129 132 144 150 144 141 134 130 134 151 162 143 150 160 176 149 127 97
246 183 140 132 132 140 139 127 120 120 125 132 142 151 155 154 153 145 143 142 139 139 135 129 128 130 131 132 117 105 121 124 132 144 142 152 139 133 141 141 141 136 135 143 156 159 141 141 126
238 211 183 173 171 158 145 125 124 135 139 146 152 159 156 157 153 150 148 147 145 143 141 139 144 143 150 157 172 149 152 140 132 119 126 143 134 126 135 140 160 160 145 135 151 151 150 163 163
248 221 213 217 208 166 182 152 141 153 157 158 160 162 158 159 159 156 154 154 151 149 147 159 157 148 155 158 171 160 162 131 130 129 133 138 121 138 160 156 154 151 159 156 170 181 160 142 150
247 227 217 220 228 207 200 164 154 170 167 165 166 164 163 168 166 160 160 159 155 150 151 161 144 150 157 161 168 177 147 126 131 132 134 131 138 147 172 138 125 174 172 152 187 133 142 144 164
251 244 220 226 220 239 224 163 162 173 172 172 172 169 170 173 171 164 163 160 157 155 156 161 157 154 159 161 169 170 164 148 139 139 133 144 163 167 177 170 173 205 150 137 127 112 132 166 183
261 262 242 225 212 244 231 173 171 180 180 175 174 173 175 176 171 167 169 165 162 159 160 165 168 160 163 168 174 173 172 176 165 160 148 155 170 170 172 183 163 187 167 170 178 156 176 192 171
254 259 253 232 204 233 237 203 181 183 191 184 181 177 177 175 170 170 173 170 167 165 165 167 169 168 175 172 178 173 170 178 169 164 150 165 176 185 189 186 196 190 190 198 189 184 206 210 179
249 251 255 255 233 233 250 235 196 189 204 192 184 181 179 177 172 172 176 176 171 170 171 174 174 173 181 172 174 174 163 184 167 165 160 176 187 194 203 185 205 206 207 200 199 204 206 216 213
254 255 260 261 259 254 256 255 209 192 201 202 193 183 180 177 172 173 177 179 177 174 174 169 170 171 176 178 186 188 187 190 180 167 169 178 189 192 197 193 204 227 221 214 214 201 212 216 229
258 265 262 260 261 262 243 259 245 196 200 203 200 187 183 176 172 173 178 178 178 175 172 169 167 172 176 185 189 198 198 186 173 161 170 178 186 195 198 198 197 213 220 226 221 213 219 223 226
259 262 262 259 260 254 240 238 235 209 196 186 200 192 181 174 169 168 171 168 174 173 171 168 164 171 176 185 190 197 203 191 178 173 176 189 191 200 199 197 199 209 214 224 223 223 215 224 234
243 248 248 245 241 247 246 244 226 197 191 189 187 188 177 170 167 167 167 168 172 171 168 165 164 173 179 186 191 191 196 192 185 185 191 206 194 192 199 198 196 205 209 217 216 227 227 224 231
237 239 240 250 255 257 259 260 251 199 188 190 179 173 171 169 169 167 169 167 172 172 167 163 164 171 178 183 184 185 182 192 194 202 205 206 202 186 175 190 202 204 214 222 215 225 229 228 233
244 243 245 250 262 270 268 275 276 223 204 194 182 169 167 169 171 167 167 167 169 171 167 162 160 168 177 182 179 179 183 195 197 195 204 211 188 187 180 195 209 213 223 237 228 233 238 234 229
243 245 248 249 254 264 262 247 237 197 203 182 171 153 151 160 165 162 162 165 168 167 160 160 161 168 173 178 181 181 187 191 187 194 207 197 193 187 191 201 209 217 227 235 232 240 236 235 240
229 237 246 261 264 264 264 260 247 168 172 175 176 150 145 154 161 156 150 151 156 158 159 157 158 163 169 175 177 180 180 185 185 194 203 195 193 186 202 214 220 222 229 236 236 241 241 239 249
242 236 237 241 250 264 271 264 257 166 154 147 121 106 113 126 139 137 137 138 149 154 154 158 161 169 171 172 172 174 175 178 187 194 199 193 188 195 207 211 227 238 235 231 235 243 246 239 243